Location: Ahausen
(50.4985°N, 8.2722°E)
Time: 02:41:47
(UTC+00:00)

ITUPSAT 1 - Pass Details

Date: 02 July 2022
Orbit: 701 x 711 km, 98.6° (Epoch: 11 August)

Event Time Altitude Azimuth Distance (km) Brightness Sun altitude
Rises 21:34:22 0° 4° (N) 3,113 ? -12.1°
Reaches altitude 10° 21:37:12 10° 347° (NNW) 2,191 ? -12.3°
Maximum altitude 21:40:29 19° 303° (WNW) 1,670 ? -12.6°
Drops below altitude 10° 21:43:46 10° 260° (W) 2,186 ? -12.8°
Sets 21:46:35 0° 242° (WSW) 3,102 ? -13.0°
